�N����,����,�~����,�C��,���x,�C��,����,���ϕ���,�ő�u�ԕ���,�ő厞����,���˗�,�I�_���x,�n�����x,�ő啗���N��,DTYPE
"16/08/20","00:10",0.0,25.8,83.8,1000.0,275.9,0.5,1.3,322.0,0.00,22.9,27.1,"00:00:16",1
"16/08/20","00:20",0.0,25.8,83.8,999.8,285.4,0.6,1.6,234.2,0.00,22.9,27.0,"00:18:08",1
"16/08/20","00:30",0.0,25.9,83.1,999.8,268.1,0.7,2.0,234.2,0.00,22.9,27.0,"00:28:24",1
"16/08/20","00:40",0.0,25.8,83.4,999.6,292.3,0.7,2.2,230.5,0.00,22.8,27.1,"00:30:48",1
"16/08/20","00:50",0.0,25.7,84.0,999.6,314.3,0.5,1.9,6.7,0.00,22.8,27.0,"00:49:04",1
"16/08/20","01:00",0.0,25.6,84.3,999.3,337.7,1.0,1.9,355.7,0.00,22.8,26.8,"00:53:28",1
"16/08/20","01:10",0.0,25.6,84.8,999.1,332.5,0.8,1.8,328.1,0.00,22.9,26.9,"01:03:52",1
"16/08/20","01:20",0.0,25.5,85.3,999.1,339.8,1.0,2.4,348.2,0.00,22.9,26.8,"01:17:52",1
"16/08/20","01:30",0.0,25.4,85.7,998.9,341.4,1.0,4.1,3.0,0.00,22.9,26.7,"01:25:44",1
"16/08/20","01:40",0.0,25.3,86.1,999.3,338.7,1.2,2.2,353.4,0.00,22.8,26.8,"01:30:16",1
"16/08/20","01:50",0.0,25.3,86.5,999.1,325.4,0.7,1.4,355.6,0.00,22.9,26.8,"01:41:52",1
"16/08/20","02:00",0.0,25.3,86.4,998.9,328.6,0.7,1.9,341.9,0.00,22.9,26.8,"01:59:12",1
"16/08/20","02:10",0.0,25.2,86.6,998.9,324.7,0.7,2.1,346.6,0.00,22.8,26.7,"02:02:24",1
"16/08/20","02:20",0.0,25.1,86.7,998.9,298.2,0.6,1.1,325.6,0.00,22.8,26.6,"02:19:12",1
"16/08/20","02:30",0.0,25.1,86.9,999.1,314.1,0.7,1.9,348.6,0.00,22.8,26.5,"02:22:32",1
"16/08/20","02:40",0.0,25.1,86.7,999.1,294.9,0.5,0.9,265.6,0.00,22.8,26.5,"02:30:08",1
"16/08/20","02:50",0.0,25.1,86.6,998.9,287.8,0.3,1.0,349.0,0.00,22.7,26.2,"02:42:24",1
"16/08/20","03:00",0.0,25.1,86.9,998.6,294.1,0.2,1.1,258.3,0.00,22.8,26.5,"02:59:28",1
"16/08/20","03:10",0.0,25.1,87.0,999.1,309.4,0.8,1.2,327.2,0.00,22.8,26.4,"03:08:08",1
"16/08/20","03:20",0.0,25.1,87.0,998.6,329.6,1.0,1.7,332.5,0.00,22.8,26.4,"03:17:28",1
"16/08/20","03:30",0.0,25.0,87.1,998.9,336.8,1.0,2.1,344.5,0.00,22.7,26.4,"03:23:36",1
"16/08/20","03:40",0.0,25.0,87.5,998.9,335.7,1.0,1.9,346.1,0.00,22.8,26.2,"03:38:08",1
"16/08/20","03:50",0.0,25.0,87.7,999.1,336.5,1.0,2.2,352.9,0.00,22.9,26.3,"03:43:36",1
"16/08/20","04:00",0.0,24.9,87.9,998.9,348.1,0.8,1.3,349.4,0.00,22.8,26.4,"03:50:48",1
"16/08/20","04:10",0.0,24.9,88.0,999.1,351.3,1.0,2.0,25.0,0.00,22.8,26.4,"04:00:48",1
"16/08/20","04:20",0.0,24.9,88.1,998.9,342.3,0.6,1.2,353.1,0.00,22.8,26.3,"04:11:20",1
"16/08/20","04:30",0.0,24.8,88.3,998.9,350.5,1.0,1.4,341.2,0.00,22.8,26.3,"04:29:20",1
"16/08/20","04:40",0.0,24.6,88.8,998.6,331.5,0.8,1.3,347.0,0.00,22.7,26.1,"04:31:12",1
"16/08/20","04:50",0.0,24.6,89.1,999.1,351.1,1.1,2.0,333.1,0.00,22.7,26.0,"04:49:04",1
"16/08/20","05:00",0.0,24.7,89.3,999.3,355.8,1.0,1.8,2.6,0.00,22.9,26.1,"04:59:20",1
"16/08/20","05:10",0.0,24.6,89.2,999.1,341.2,1.2,1.8,343.8,0.00,22.7,26.2,"05:03:28",1
"16/08/20","05:20",0.0,24.4,89.7,999.1,345.5,1.1,1.7,356.7,0.00,22.6,26.1,"05:13:28",1
"16/08/20","05:30",0.0,24.4,90.1,999.1,341.2,0.8,1.4,338.9,0.00,22.7,25.9,"05:29:36",1
"16/08/20","05:40",0.0,24.4,90.6,999.1,325.6,1.0,1.3,338.7,0.00,22.8,26.2,"05:33:04",1
"16/08/20","05:50",0.0,24.6,90.7,999.1,335.6,0.8,1.8,336.0,0.00,23.0,26.0,"05:43:36",1
"16/08/20","06:00",0.0,25.0,90.0,999.1,354.9,0.7,1.4,349.5,0.00,23.3,26.2,"05:57:52",1
"16/08/20","06:10",0.0,25.3,89.2,999.3,335.3,1.0,1.8,350.8,0.01,23.4,26.3,"06:08:34",1
"16/08/20","06:20",0.0,25.7,88.2,999.3,347.0,0.8,1.8,345.8,0.01,23.6,26.2,"06:13:12",1
"16/08/20","06:30",0.0,26.4,87.0,999.3,300.7,0.3,0.8,332.6,0.03,24.1,26.3,"06:20:08",1
"16/08/20","06:40",0.0,27.0,84.4,999.6,334.0,0.6,1.7,2.0,0.04,24.2,26.2,"06:37:34",1
"16/08/20","06:50",0.0,27.5,81.2,999.3,7.8,0.7,1.7,351.8,0.05,24.0,26.1,"06:48:40",1
"16/08/20","07:00",0.0,28.3,80.2,999.3,9.1,0.1,0.9,55.8,0.07,24.6,26.2,"06:50:08",1
"16/08/20","07:10",0.0,28.8,77.0,999.1,44.6,0.1,0.9,16.7,0.09,24.4,26.3,"07:03:12",1
"16/08/20","07:20",0.0,29.1,75.0,998.6,137.1,0.1,0.8,57.7,0.11,24.3,26.2,"07:16:08",1
"16/08/20","07:30",0.0,29.6,74.4,998.9,165.6,0.2,1.6,219.1,0.14,24.6,26.4,"07:23:12",1
"16/08/20","07:40",0.0,30.2,72.7,999.1,111.4,0.2,1.0,0.4,0.16,24.8,26.5,"07:36:08",1
"16/08/20","07:50",0.0,30.4,70.9,998.9,67.1,0.5,1.9,8.7,0.18,24.6,26.6,"07:41:12",1
"16/08/20","08:00",0.0,30.6,69.4,999.6,170.0,0.2,1.2,198.2,0.21,24.4,26.6,"07:51:04",1
"16/08/20","08:10",0.0,30.8,69.8,999.6,250.2,0.3,1.3,211.5,0.23,24.7,26.8,"08:02:08",1
"16/08/20","08:20",0.0,31.1,68.1,1000.0,116.7,0.5,2.2,340.8,0.26,24.6,27.0,"08:17:12",1
"16/08/20","08:30",0.0,31.8,65.1,1000.3,85.7,0.3,1.2,17.5,0.29,24.5,27.0,"08:25:20",1
"16/08/20","08:40",0.0,32.1,65.2,1000.0,123.2,0.6,1.7,2.1,0.32,24.8,27.2,"08:31:44",1
"16/08/20","08:50",0.0,32.5,63.0,1000.3,181.8,0.7,2.1,206.4,0.36,24.6,27.4,"08:42:40",1
"16/08/20","09:00",0.0,31.9,61.2,1000.3,131.2,1.2,3.1,129.1,0.38,23.5,27.4,"08:53:20",1
"16/08/20","09:10",0.0,32.6,62.2,1000.8,142.6,0.8,2.8,42.5,0.41,24.5,27.7,"09:06:24",1
"16/08/20","09:20",0.0,31.9,63.3,1001.0,112.1,1.0,1.9,9.0,0.30,24.1,28.0,"09:13:28",1
"16/08/20","09:30",0.0,32.5,60.4,1000.8,73.9,1.0,2.0,151.3,0.33,23.9,27.8,"09:22:32",1
"16/08/20","09:40",0.0,31.7,60.9,1000.5,38.5,0.7,1.9,2.8,0.15,23.3,27.9,"09:30:24",1
"16/08/20","09:50",0.0,31.7,61.2,1000.0,18.4,1.0,2.2,38.9,0.14,23.3,27.7,"09:45:20",1
"16/08/20","10:00",0.0,31.3,64.8,999.8,9.2,0.8,2.2,4.9,0.11,23.9,27.9,"09:54:08",1
"16/08/20","10:10",0.0,31.7,64.7,999.6,24.8,1.0,2.8,8.0,0.16,24.3,28.1,"10:01:36",1
"16/08/20","10:20",0.0,33.5,59.3,999.6,104.2,0.8,2.2,114.4,0.50,24.5,28.2,"10:19:04",1
"16/08/20","10:30",0.0,34.0,55.2,1000.0,88.1,1.0,1.9,128.5,0.54,23.8,28.3,"10:20:16",1
"16/08/20","10:40",0.0,34.1,56.8,1000.5,144.6,1.0,2.6,125.4,0.55,24.3,28.6,"10:37:52",1
"16/08/20","10:50",0.0,34.1,53.8,1000.3,21.7,1.3,3.5,22.8,0.52,23.4,28.9,"10:44:00",1
"16/08/20","11:00",0.0,34.5,54.4,1000.5,61.7,0.8,2.7,344.7,0.46,24.0,28.8,"10:59:20",1
"16/08/20","11:10",0.0,33.7,56.5,1000.0,348.4,0.8,2.2,340.1,0.30,23.9,29.1,"11:06:48",1
"16/08/20","11:20",0.0,33.9,55.3,1000.0,5.4,0.7,2.1,2.9,0.44,23.7,29.3,"11:17:44",1
"16/08/20","11:30",0.0,34.1,55.9,1000.0,355.7,1.2,3.5,7.9,0.45,24.1,29.4,"11:22:08",1
"16/08/20","11:40",0.0,32.8,59.2,999.1,2.0,1.3,3.2,39.4,0.13,23.8,29.5,"11:32:40",1
"16/08/20","11:50",0.0,33.7,54.5,998.9,8.4,1.7,3.9,351.5,0.35,23.3,29.4,"11:44:48",1
"16/08/20","12:00",0.0,34.4,58.2,998.9,19.9,1.6,3.9,7.9,0.47,25.0,29.4,"11:57:36",1
"16/08/20","12:10",0.0,35.6,51.0,998.9,355.5,1.1,2.9,36.2,0.62,23.9,29.9,"12:06:24",1
"16/08/20","12:20",0.0,35.2,50.6,998.9,5.6,1.6,4.9,11.4,0.55,23.4,30.0,"12:18:32",1
"16/08/20","12:30",0.0,34.4,55.3,999.1,44.5,1.0,2.8,348.6,0.29,24.2,30.1,"12:27:28",1
"16/08/20","12:40",0.0,35.0,51.8,998.9,350.3,1.1,4.4,358.6,0.49,23.6,30.1,"12:36:08",1
"16/08/20","12:50",0.0,36.0,49.6,998.9,358.4,1.1,3.9,355.6,0.60,23.8,30.4,"12:46:24",1
"16/08/20","13:00",0.0,34.6,54.0,998.9,351.3,0.6,1.9,353.2,0.18,24.0,30.4,"12:57:44",1
"16/08/20","13:10",0.0,33.7,54.0,998.6,347.0,1.2,3.1,358.6,0.16,23.1,30.7,"13:01:28",1
"16/08/20","13:20",0.0,34.1,53.3,997.9,15.0,1.5,2.8,15.8,0.20,23.3,30.6,"13:16:40",1
"16/08/20","13:30",0.0,34.9,53.0,998.2,348.7,1.1,4.1,32.1,0.31,23.9,30.6,"13:29:12",1
"16/08/20","13:40",0.0,33.7,54.8,997.9,12.1,1.5,3.1,340.6,0.11,23.4,30.5,"13:37:52",1
"16/08/20","13:50",0.0,33.7,53.2,997.4,4.3,1.0,2.9,348.3,0.12,22.9,30.4,"13:41:28",1
"16/08/20","14:00",0.0,35.7,51.3,997.7,46.9,0.3,1.6,4.4,0.44,24.1,30.6,"13:57:52",1
"16/08/20","14:10",0.0,34.9,53.4,997.9,7.3,1.5,3.6,353.6,0.30,24.1,30.5,"14:00:02",1
"16/08/20","14:20",0.0,35.2,49.4,997.9,21.6,1.7,4.3,349.4,0.41,23.0,30.7,"14:15:20",1
"16/08/20","14:30",0.0,34.1,52.4,997.7,27.2,1.0,2.7,354.6,0.11,23.0,30.8,"14:21:52",1
"16/08/20","14:40",0.0,34.7,55.7,997.4,18.4,0.8,1.9,13.1,0.20,24.6,30.6,"14:31:36",1
"16/08/20","14:50",0.0,34.7,52.6,997.4,8.6,1.3,3.1,359.5,0.28,23.6,30.7,"14:44:40",1
"16/08/20","15:00",0.0,35.4,50.5,997.2,7.7,1.1,2.7,332.4,0.33,23.6,30.7,"14:50:48",1
"16/08/20","15:10",0.0,35.8,51.2,997.9,350.0,1.3,3.9,347.5,0.46,24.2,30.9,"15:02:24",1
"16/08/20","15:20",0.0,35.5,49.8,997.7,353.9,1.6,4.0,341.5,0.39,23.5,30.9,"15:17:28",1
"16/08/20","15:30",0.0,35.6,51.7,997.4,5.2,1.5,2.9,20.9,0.38,24.2,31.0,"15:21:44",1
"16/08/20","15:40",0.0,35.3,51.2,997.7,357.0,1.7,4.7,28.4,0.36,23.7,30.9,"15:36:24",1
"16/08/20","15:50",0.0,34.9,50.9,997.2,9.3,1.7,4.2,329.5,0.30,23.3,31.0,"15:44:56",1
"16/08/20","16:00",0.0,34.5,53.4,997.2,356.8,1.7,4.3,349.5,0.30,23.7,31.1,"15:56:16",1
"16/08/20","16:10",0.0,34.1,52.9,997.2,348.1,1.7,4.8,349.3,0.26,23.2,30.9,"16:02:40",1
"16/08/20","16:20",0.0,34.0,52.4,997.0,340.5,1.6,5.4,358.5,0.23,22.9,30.9,"16:11:20",1
"16/08/20","16:30",0.0,33.6,54.9,996.7,345.2,1.6,3.5,2.2,0.19,23.3,30.6,"16:29:52",1
"16/08/20","16:40",0.0,33.2,56.0,996.5,357.1,1.5,5.0,353.6,0.07,23.3,30.6,"16:33:44",1
"16/08/20","16:50",0.0,33.0,57.5,996.0,351.0,1.7,4.3,354.3,0.04,23.5,30.2,"16:44:32",1
"16/08/20","17:00",0.0,32.7,57.3,995.8,353.1,1.8,4.9,343.1,0.03,23.2,30.1,"16:53:28",1
"16/08/20","17:10",0.0,32.3,57.7,995.8,355.8,1.6,4.5,342.3,0.02,22.9,30.1,"17:00:24",1
"16/08/20","17:20",0.0,32.0,59.2,995.6,358.2,1.7,3.9,346.2,0.02,23.1,30.0,"17:18:24",1
"16/08/20","17:30",0.0,31.7,59.8,995.8,356.4,1.8,4.9,345.5,0.02,23.0,29.8,"17:29:44",1
"16/08/20","17:40",0.0,31.7,60.3,995.6,0.0,1.7,5.0,345.7,0.02,23.1,29.8,"17:33:28",1
"16/08/20","17:50",0.0,31.3,61.6,995.6,0.3,1.5,3.6,345.7,0.01,23.1,29.8,"17:47:04",1
"16/08/20","18:00",0.0,31.1,63.2,995.3,356.8,1.6,5.0,342.2,0.01,23.3,29.6,"17:58:16",1
"16/08/20","18:10",0.0,30.8,64.3,995.8,9.6,1.6,4.1,352.7,0.00,23.3,29.4,"18:02:40",1
"16/08/20","18:20",0.0,30.7,64.3,995.8,9.3,1.6,3.9,347.9,0.01,23.2,29.5,"18:17:12",1
"16/08/20","18:30",0.0,30.5,65.4,995.8,6.5,1.3,3.4,334.7,0.00,23.3,29.4,"18:21:20",1
"16/08/20","18:40",0.0,30.2,66.6,995.6,11.6,1.5,3.4,4.7,0.00,23.3,29.3,"18:37:12",1
"16/08/20","18:50",0.0,29.9,67.5,995.6,359.7,1.5,3.5,4.2,0.00,23.3,29.3,"18:46:24",1
"16/08/20","19:00",0.0,29.7,68.2,996.0,3.2,1.5,3.4,11.2,0.00,23.2,29.2,"18:56:56",1
"16/08/20","19:10",0.0,29.6,68.9,995.6,2.3,1.5,3.3,350.5,0.00,23.3,28.8,"19:04:08",1
"16/08/20","19:20",0.0,29.5,69.1,995.6,1.3,1.5,3.7,357.1,0.00,23.3,28.8,"19:17:04",1
"16/08/20","19:30",0.0,29.3,69.8,995.8,359.3,1.3,2.6,7.6,0.00,23.3,29.0,"19:20:48",1
"16/08/20","19:40",0.0,29.1,70.2,996.7,2.3,1.2,2.6,353.4,0.00,23.2,28.8,"19:36:56",1
"16/08/20","19:50",0.0,29.2,69.5,996.7,359.8,1.1,2.8,348.8,0.00,23.1,28.7,"19:41:36",1
"16/08/20","20:00",0.0,29.3,69.8,996.7,13.6,0.8,1.9,337.1,0.00,23.3,28.7,"19:54:56",1
"16/08/20","20:10",0.0,29.1,70.2,996.7,2.7,0.7,1.8,353.6,0.00,23.2,28.4,"20:04:48",1
"16/08/20","20:20",0.0,29.1,70.7,997.2,8.2,0.7,2.0,10.7,0.00,23.3,28.5,"20:10:16",1
"16/08/20","20:30",0.0,29.1,68.0,997.4,68.7,1.3,3.4,65.7,0.00,22.6,28.5,"20:25:44",1
"16/08/20","20:40",0.0,28.9,68.7,997.4,70.7,1.1,2.9,77.8,0.00,22.6,28.4,"20:36:48",1
"16/08/20","20:50",0.0,28.6,68.6,997.7,67.1,1.0,3.6,22.8,0.00,22.3,28.4,"20:40:02",1
"16/08/20","21:00",0.0,28.3,67.8,997.7,43.6,0.8,2.2,84.0,0.00,21.8,28.3,"20:54:00",1
"16/08/20","21:10",0.0,28.1,68.2,997.9,338.1,0.8,2.1,353.5,0.00,21.7,28.2,"21:08:28",1
"16/08/20","21:20",0.0,27.9,69.6,997.7,329.0,0.7,2.1,348.9,0.00,21.9,28.2,"21:10:48",1
"16/08/20","21:30",0.0,27.9,69.9,997.9,269.0,0.3,1.0,338.6,0.00,21.9,28.1,"21:22:24",1
"16/08/20","21:40",0.0,27.8,70.8,997.9,250.9,0.1,1.0,231.1,0.00,22.1,28.2,"21:36:48",1
"16/08/20","21:50",0.0,27.5,71.4,997.7,246.8,0.1,0.5,293.0,0.00,21.9,27.9,"21:46:24",1
"16/08/20","22:00",0.0,27.3,71.5,997.7,268.9,0.3,1.0,313.7,0.00,21.7,27.9,"21:53:36",1
"16/08/20","22:10",0.0,27.1,74.0,997.7,320.2,0.6,0.9,314.2,0.00,22.1,28.1,"22:02:56",1
"16/08/20","22:20",0.0,26.9,75.5,997.4,303.7,0.5,0.9,334.9,0.00,22.2,27.8,"22:14:40",1
"16/08/20","22:30",0.0,26.8,76.7,997.7,344.8,0.5,1.1,336.6,0.00,22.4,27.8,"22:26:32",1
"16/08/20","22:40",0.0,26.6,78.8,998.2,295.4,0.6,1.0,345.7,0.00,22.7,27.7,"22:32:16",1
"16/08/20","22:50",0.0,26.5,78.6,997.9,319.4,0.5,1.1,7.5,0.00,22.5,27.8,"22:48:40",1
"16/08/20","23:00",0.0,26.6,77.9,998.2,295.6,0.3,0.8,20.3,0.00,22.5,27.7,"22:51:20",1
"16/08/20","23:10",0.0,26.5,76.9,998.2,276.8,0.5,1.2,240.2,0.00,22.2,27.6,"23:07:04",1
"16/08/20","23:20",0.0,26.7,77.5,998.2,335.5,0.7,1.6,0.3,0.00,22.5,27.4,"23:18:40",1
"16/08/20","23:30",0.0,26.4,79.5,998.2,313.4,0.6,1.6,341.6,0.00,22.6,27.5,"23:20:16",1
"16/08/20","23:40",0.0,26.1,80.9,997.9,329.2,0.6,1.2,336.2,0.00,22.6,27.4,"23:39:20",1
"16/08/20","23:50",0.0,26.0,80.6,998.4,336.0,0.8,1.3,350.3,0.00,22.4,27.5,"23:45:44",1
"16/08/20","24:00",0.0,26.0,80.6,998.4,320.0,0.5,0.8,355.9,0.00,22.4,27.6,"23:51:12",1
